Погода в Пьештянах

Словакия     48°35′16″N   17°49′05″E
темп.,
°C
ветер,
м/с
пор.,
м/с
влажн.,
%
обл.,
%
осадки,
мм/ч
давл.,
гПа
погр.,
м
27 сентября, пн
пн2723:00+16всв33705 0.0 101833
02:00+15всв33777 0.0 101757
05:00+14всв228295 0.0 101724
08:00+16в1374100 0.0 1017144
11:00+17ююв2373100 0.3 1018305
14:00+15зсз1192100 4.3 1017118
17:00+15ссз1196100 5.3 101780
20:00+15сз119596 6.3 101840
28 сентября, вт
вт2823:00+15сз2395100 0.3 101885
02:00+15сз249699 0.4 1019115
05:00+14сз369462 0.0 1019171
08:00+14сз399179 0.0 1019340
11:00+16ссз488975 0.0 1020374
14:00+20ссз67679 0.0 1020915
17:00+21ссз67611 0.0 1019832
20:00+15ссз35785 0.0 102073
29 сентября, ср
ср2923:00+14ссв337999 0.0 102153
02:00+13св3380100 0.0 102153
05:00+12всв228767 0.0 102029
08:00+15вюв2581100 0.0 1021238
11:00+17ююв4565100 0.0 1022650
14:00+16ююв2569100 0.1 1022371
17:00+17юв2472100 0.1 1021353
20:00+15юз1280100 0.1 102342
30 сентября, чт
чт3023:00+14сз3985100 0.1 1024472
02:00+13зсз1189100 0.7 102444
05:00+13сз2291100 1.5 102577
08:00+13сз2785100 1.9 1026344
11:00+17с346587 0.0 1027794
14:00+18сз6654100 0.1 10271503
17:00+17с4553100 0.0 1026741
20:00+12с33640 0.0 102738
1 октября, пт
пт123:00+11св22725 0.0 102818
02:00+10ссв22823 0.0 102811
05:00+9св22905 0.0 102712
08:00+10всв11878 0.0 102856
11:00+15юв237097 0.0 1027621
14:00+18ю345417 0.0 10251264
17:00+19ююв455610 0.0 1024969
20:00+14вюв337157 0.0 102433